Rochester, MN

5:26 AM CDT on September 26, 2017 (GMT -0500)
Rochester International

Weather History for KRST - November, 2013

Change the Weather History Date:

Sunday, November 10, 2013

  Actual Average Record
Temperature  
Mean Temperature 38 °F 37 °F  
Max Temperature 43 °F 45 °F 75 °F (2012)
Min Temperature 32 °F 29 °F 1 °F (1986)
Degree Days  
Heating Degree Days 27 28  
Month to date heating degree days 268 255  
Since 1 July heating degree days 951 991  
Cooling Degree Days 0 0  
Month to date cooling degree days 0 0  
Year to date cooling degree days 656 585  
Moisture  
Dew Point 28 °F    
Average Humidity 68    
Maximum Humidity 78    
Minimum Humidity 57    
Precipitation  
Precipitation 0.00 in 0.07 in 1.59 in (1919)
Month to date precipitation 1.30 0.66  
Year to date precipitation 40.20 30.54  
Snow  
Snow 0.00 in 0.10 in 10.50 in (2006)
Month to date snowfall T 1.1  
Since 1 July snowfall T 1.9  
Snow Depth 0.00 in    
Sea Level Pressure  
Sea Level Pressure 30.30 in    
Wind  
Wind Speed 11 mph (WSW)    
Max Wind Speed 18 mph    
Max Gust Speed 22 mph    
Visibility 10 miles    
Events      
T = Trace of Precipitation, MM = Missing Value Source: NWS Daily Summary

Daily Weather History Graph

Daily Weather History Graph

Search for Another Location

Airport or City:

Trip Planner

Search our weather history database for the weather conditions in past years. The results will help you decide how hot, cold, wet, or windy it might be!

Date:

Astronomy

Nov. 10, 2013 Rise Set
Actual Time 6:58 AM CST 4:48 PM CST
Civil Twilight 6:27 AM CST 5:19 PM CST
Nautical Twilight 5:53 AM CST 5:54 PM CST
Astronomical Twilight 5:19 AM CST 6:27 PM CST
Moon 1:07 PM CST (11/10) No Moon Set
Length of Visible Light 10h 51m
Length of Day
9h 50m
First Quarter, 56% of the Moon is Illuminated
Nov 10
First Quarter
Nov 17
Full
Nov 25
Last Quarter
Dec 2
New
Dec 9
First Quarter

Hourly Weather History & Observations

Time (CST) Temp. Windchill Dew Point Humidity Pressure Visibility Wind Dir Wind Speed Gust Speed Precip Events Conditions
12:54 AM 32.0 °F 21.2 °F 26.1 °F 79% 30.25 in 10.0 mi WNW 16.1 mph - N/A   Mostly Cloudy
1:15 AM 33.8 °F 23.9 °F 26.6 °F 75% 30.22 in 10.0 mi WNW 15.0 mph - N/A   Overcast
1:54 AM 34.0 °F 24.2 °F 26.1 °F 73% 30.27 in 10.0 mi WNW 15.0 mph - N/A   Overcast
2:54 AM 35.1 °F 26.4 °F 27.0 °F 72% 30.28 in 10.0 mi NW 12.7 mph - N/A   Overcast
3:54 AM 35.1 °F 25.9 °F 27.0 °F 72% 30.30 in 10.0 mi NW 13.8 mph - N/A   Overcast
4:54 AM 35.1 °F 27.4 °F 27.0 °F 72% 30.33 in 10.0 mi NW 10.4 mph - N/A   Overcast
5:54 AM 35.1 °F 27.4 °F 26.1 °F 70% 30.35 in 10.0 mi NNW 10.4 mph - N/A   Overcast
6:54 AM 33.1 °F 26.9 °F 27.0 °F 78% 30.37 in 10.0 mi WNW 6.9 mph - N/A   Overcast
7:54 AM 33.1 °F 26.9 °F 26.1 °F 75% 30.39 in 10.0 mi NW 6.9 mph - N/A   Mostly Cloudy
8:08 AM 33.8 °F 27.7 °F 26.6 °F 75% 30.34 in 10.0 mi WNW 6.9 mph - N/A   Scattered Clouds
8:54 AM 37.0 °F 31.6 °F 26.1 °F 65% 30.38 in 10.0 mi WNW 6.9 mph - N/A   Clear
9:54 AM 39.0 °F - 26.1 °F 60% 30.38 in 10.0 mi North - - N/A   Clear
10:54 AM 39.0 °F 34.0 °F 27.0 °F 62% 30.38 in 10.0 mi SW 6.9 mph - N/A   Clear
11:54 AM 41.0 °F 35.8 °F 28.0 °F 60% 30.36 in 10.0 mi WSW 8.1 mph - N/A   Clear
12:54 PM 42.1 °F 36.1 °F 28.9 °F 60% 30.32 in 10.0 mi WSW 10.4 mph - N/A   Scattered Clouds
1:54 PM 41.0 °F 33.5 °F 28.9 °F 62% 30.30 in 10.0 mi WSW 13.8 mph - N/A   Overcast
2:54 PM 42.1 °F 35.2 °F 30.0 °F 62% 30.29 in 10.0 mi SW 12.7 mph - N/A   Mostly Cloudy
3:54 PM 41.0 °F 34.3 °F 28.9 °F 62% 30.28 in 10.0 mi SW 11.5 mph - N/A   Overcast
4:54 PM 39.0 °F 33.4 °F 28.9 °F 67% 30.26 in 10.0 mi SW 8.1 mph - N/A   Overcast
5:54 PM 37.9 °F 31.5 °F 28.9 °F 70% 30.23 in 10.0 mi SSW 9.2 mph - N/A   Overcast
6:54 PM 37.9 °F 30.9 °F 30.0 °F 73% 30.21 in 10.0 mi South 10.4 mph - N/A   Overcast
7:54 PM 37.9 °F 30.5 °F 28.9 °F 70% 30.20 in 10.0 mi SSW 11.5 mph - N/A   Overcast
8:54 PM 39.0 °F 32.3 °F 30.0 °F 70% 30.19 in 10.0 mi SSW 10.4 mph - N/A   Overcast
9:54 PM 39.0 °F 32.3 °F 28.9 °F 67% 30.17 in 10.0 mi SSW 10.4 mph - N/A   Overcast
10:54 PM 39.0 °F 30.6 °F 28.9 °F 67% - 10.0 mi SSW 15.0 mph 21.9 mph N/A   Scattered Clouds
11:54 PM 39.0 °F 31.4 °F 28.9 °F 67% - 10.0 mi SW 12.7 mph - N/A   Clear